TimeEST,TemperatureF,Dew PointF,Humidity,Sea Level PressureIn,VisibilityMPH,Wind Direction,Wind SpeedMPH,Gust SpeedMPH,PrecipitationIn,Events,Conditions,WindDirDegrees,DateUTC
12:55 AM,39.4,23.4,53,30.27,10.0,SSW,9.2,-,N/A,,Clear,200,2013-02-19 05:55:00
1:55 AM,38.1,24.8,59,30.23,10.0,South,5.8,-,N/A,,Clear,170,2013-02-19 06:55:00
2:55 AM,37.8,24.8,60,30.22,10.0,South,5.8,-,N/A,,Clear,180,2013-02-19 07:55:00
3:55 AM,37.2,25.3,62,30.19,10.0,South,5.8,-,N/A,,Clear,180,2013-02-19 08:55:00
4:55 AM,37.0,26.6,66,30.17,10.0,South,8.1,-,N/A,,Clear,170,2013-02-19 09:55:00
5:55 AM,37.8,29.1,71,30.15,10.0,SSE,6.9,-,N/A,,Clear,160,2013-02-19 10:55:00
6:55 AM,35.6,29.5,78,30.13,10.0,SSE,3.5,-,N/A,,Clear,160,2013-02-19 11:55:00
7:55 AM,41.2,33.3,73,30.12,10.0,South,6.9,-,N/A,,Mostly Cloudy,170,2013-02-19 12:55:00
8:55 AM,46.4,36.9,69,30.09,10.0,South,8.1,-,N/A,,Mostly Cloudy,180,2013-02-19 13:55:00
9:55 AM,49.5,37.9,65,30.06,10.0,South,5.8,-,N/A,,Mostly Cloudy,180,2013-02-19 14:55:00
10:55 AM,52.7,40.6,64,30.04,10.0,Variable,6.9,-,N/A,,Mostly Cloudy,0,2013-02-19 15:55:00
11:55 AM,54.5,42.3,63,29.98,10.0,South,8.1,-,N/A,,Scattered Clouds,190,2013-02-19 16:55:00
12:54 PM,57.2,42.8,59,29.94,10.0,SW,12.7,21.9,N/A,Rain,Light Rain,220,2013-02-19 17:54:00
12:55 PM,57.4,43.7,60,29.94,10.0,SW,10.4,21.9,0.00,Rain,Light Rain,220,2013-02-19 17:55:00
1:04 PM,57.2,44.6,63,29.93,10.0,SW,11.5,23.0,N/A,,Overcast,220,2013-02-19 18:04:00
1:05 PM,57.2,44.6,63,29.93,10.0,SW,10.4,23.0,N/A,,Light Drizzle,220,2013-02-19 18:05:00
1:09 PM,55.4,46.4,72,29.92,5.0,SW,12.7,23.0,N/A,,Light Drizzle,230,2013-02-19 18:09:00
1:21 PM,53.6,46.4,77,29.93,3.0,SW,10.4,17.3,N/A,,Overcast,230,2013-02-19 18:21:00
1:37 PM,51.8,48.2,88,29.92,6.0,WSW,6.9,-,N/A,Rain,Light Rain,240,2013-02-19 18:37:00
1:47 PM,51.8,48.2,88,29.91,5.0,SW,5.8,-,N/A,,Overcast,220,2013-02-19 18:47:00
1:48 PM,51.8,48.2,88,29.91,5.0,SW,5.8,-,N/A,Rain,Light Rain,220,2013-02-19 18:48:00
1:55 PM,52.3,48.6,87,29.91,6.0,SW,8.1,-,0.03,Rain,Light Rain,220,2013-02-19 18:55:00
2:18 PM,51.8,48.2,88,29.88,10.0,SSW,8.1,-,N/A,,Mostly Cloudy,200,2013-02-19 19:18:00
2:55 PM,53.1,48.7,85,29.85,10.0,SSW,9.2,-,0.00,,Overcast,200,2013-02-19 19:55:00
3:43 PM,53.6,48.2,82,29.82,6.0,SW,10.4,19.6,N/A,Rain,Light Rain,220,2013-02-19 20:43:00
3:55 PM,54.0,48.7,82,29.82,5.0,SSW,10.4,-,0.00,,Light Drizzle,210,2013-02-19 20:55:00
4:20 PM,53.6,48.2,82,29.81,1.5,SSW,10.4,17.3,N/A,,Light Drizzle,210,2013-02-19 21:20:00
4:45 PM,51.8,50.0,94,29.80,10.0,SSW,8.1,18.4,N/A,,Overcast,210,2013-02-19 21:45:00
4:55 PM,52.3,49.3,89,29.80,10.0,SW,8.1,-,0.01,,Overcast,220,2013-02-19 21:55:00
5:35 PM,51.8,48.2,88,29.80,7.0,WSW,8.1,-,N/A,,Light Drizzle,250,2013-02-19 22:35:00
5:55 PM,51.8,49.6,92,29.81,4.0,WSW,9.2,-,0.03,Rain,Light Rain,250,2013-02-19 22:55:00
6:13 PM,51.8,50.0,94,29.81,8.0,WSW,9.2,19.6,N/A,,Light Drizzle,240,2013-02-19 23:13:00
6:15 PM,51.8,50.0,94,29.81,9.0,WSW,10.4,19.6,N/A,,Overcast,240,2013-02-19 23:15:00
6:21 PM,51.8,50.0,94,29.81,10.0,Variable,6.9,-,N/A,,Light Drizzle,0,2013-02-19 23:21:00
6:35 PM,51.8,50.0,94,29.81,10.0,WSW,11.5,-,N/A,,Overcast,250,2013-02-19 23:35:00
7:55 PM,50.2,45.9,85,29.84,10.0,West,8.1,16.1,N/A,,Mostly Cloudy,260,2013-02-20 00:55:00
8:55 PM,48.4,44.2,86,29.86,10.0,West,9.2,16.1,N/A,,Partly Cloudy,270,2013-02-20 01:55:00
9:55 PM,46.6,42.1,84,29.87,10.0,West,9.2,-,N/A,,Clear,260,2013-02-20 02:55:00
10:55 PM,45.3,40.3,83,29.87,10.0,Variable,6.9,-,N/A,,Clear,0,2013-02-20 03:55:00